Regional Weather Roundup
Issued by NWS

Home | Current Version | Previous Version | Graphics & Text | Print | Product List | Glossary On
Versions: 1 2 3 4 5 6 7 8 9 10 11 12 13 14 15 16 17 18 19 20 21 22 23 24 25 26 27 28 29 30 31 32 33 34 35 36 37 38 39 40 41 42 43 44 45 46 47 48 49 50
000
ASUS43 KFSD 232102
RWRSD

WEATHER ROUNDUP FOR SOUTH DAKOTA
NATIONAL WEATHER SERVICE SIOUX FALLS SD
400 PM CDT THU OCT 23 2014

NOTE: "FAIR" INDICATES FEW OR NO CLOUDS BELOW 12,000 FEET WITH NO
SIGNIFICANT WEATHER AND/OR OBSTRUCTIONS TO VISIBILITY.


SDZ001>005-009-010-012>017-232200-
NORTHWEST AND NORTH CENTRAL SOUTH DAKOTA

CITY           SKY/WX    TMP DP  RH WIND       PRES   REMARKS
BUFFALO          N/A     68  22  17 SW14      29.82S
FAITH            N/A     67  29  24 S10       29.89R
MOBRIDGE       MOSUNNY   69  42  37 SE10      29.84F
$$

SDZ012>016-024>037-041>051-057-063-072>074-232200-
SOUTHWEST AND SOUTH CENTRAL SOUTH DAKOTA

CITY           SKY/WX    TMP DP  RH WIND       PRES   REMARKS
RAPID CTY ARPT CLOUDY    71  29  21 E7        29.86F
PIERRE         PTSUNNY   69  36  29 SE7       29.87F
CUSTER         PTSUNNY   61  23  23 W17G25    29.99R
ELLSWORTH AFB  CLOUDY    70  31  23 S3        29.87F
PHILIP         PTSUNNY   72  28  19 SW10      29.86F
PINE RIDGE     CLOUDY    70  33  25 W15       29.93F
SPEARFISH      FAIR      64  30  27 E3        29.93S
WINNER         FAIR      76  28  17 SW13      29.90F
$$

SDZ004>011-016>023-039-040-232200-
NORTHEAST SOUTH DAKOTA

CITY           SKY/WX    TMP DP  RH WIND       PRES   REMARKS
ABERDEEN       SUNNY     71  43  36 S14       29.88F
WATERTOWN      SUNNY     68  43  40 SW13      29.92F
SISSETON         N/A     72  37  28 SW12      29.88S
$$

SDZ017-020-022-023-036>040-048>070-232200-
SOUTHEAST SOUTH DAKOTA

CITY           SKY/WX    TMP DP  RH WIND       PRES   REMARKS
SIOUX FALLS    MOSUNNY   68  44  42 SW9       29.96F
HURON          SUNNY     73  44  35 S12       29.89F
CHAMBERLAIN    SUNNY     71  35  27 S5        29.90F
MITCHELL       SUNNY     73  48  41 S10       29.91F
YANKTON        SUNNY     72  46  40 S10       29.95F
$$

ABBREVIATIONS USED IN REMARKS
   TC - TEMPERATURE IN CELSIUS
  WCI - WIND CHILL INDEX
   HX - HEAT INDEX
  VSB - VISIBILITY




USA.gov is the U.S. government's official web portal to all federal, state and local government web resources and services.